Tracking 28356 objects as of 7-Dec-2023
HD Live streaming from Space Station
objects crossing your sky now

SL-12 R/B(2)

Track SL-12 R/B(2) now!


NORAD ID: 23883
Int'l Code: 1996-034D
Perigee: 36,322.9 km
Apogee: 36,594.0 km
Inclination: 15.2 °
Period: 1,470.2 minutes
Semi major axis: 42829 km
RCS: 2.9121 m2 (large)
Launch date: May 25, 1996
Source: Commonwealth of Independent States (former USSR) (CIS)
Launch site: TYURATAM MISSILE AND SPACE COMPLEX (TTMTR)

Note: This is a ROCKET BODY
Your satellite tracking list
Your tracking list is empty




NASA's NSSDC Master Catalog

Two Line Element Set (TLE):
1 23883U 96034D   23340.46572661 -.00000185  00000-0  00000-0 0  9990
2 23883  15.2140   4.6722 0031642  83.3042 300.5333  0.97946587 98498
Source of the keplerian elements: AFSPC